Location: Neuvy-Saint-S�pulchre
(46.5950°N, 1.8122°E)
Time: 12:03:23
(UTC+02:00)

ISS - Visible Passes

Search period start: 14 April 2026 00:00
Search period end: 24 April 2026 00:00
Orbit: 415 x 424 km, 51.6° (Epoch: 14 April)

Date Brightness Start Highest point End Pass type
(mag) Time Alt. Az. Time Alt. Az. Time Alt. Az.
17 Apr -1.0 06:12:24 10° SSE 06:14:00 13° SE 06:15:37 10° ESE visible
19 Apr -2.3 06:12:39 10° SSW 06:15:40 31° SE 06:18:42 10° ENE visible
20 Apr -1.7 05:26:38 14° S 05:28:24 20° SE 05:30:58 10° E visible
21 Apr -1.2 04:41:06 13° SE 04:41:10 13° SE 04:42:48 10° ESE visible
21 Apr -3.7 06:14:08 10° SW 06:17:29 75° SSE 06:20:52 10° ENE visible
22 Apr -3.2 05:28:27 25° SSW 05:30:05 48° SSE 05:33:22 10° ENE visible
23 Apr -2.6 04:42:46 31° SE 04:42:46 31° SE 04:45:47 10° ENE visible
23 Apr -3.3 06:16:06 10° W 06:19:26 56° NNW 06:22:47 10° ENE visible
